VTD703 UWSK-UWSK

Flight info

Callsign VTD703
Flight time 0h 6m
Altitude 1200
Route RA/A012
Aircraft DA40/L-SDF/C

Departure

Time 2026-05-07 15:53
Airport Krasny Kut Airport (UWSK)

Arrival

Time 2026-05-07 15:59
Airport Krasny Kut Airport (UWSK)
Time Latitude Longitude Altitude Speed Heading
2026-05-07 15:53 50.94278 47.11413 1206 ft 123 kts 262°
2026-05-07 15:53 50.94115 47.10077 1194 ft 123 kts 263°
2026-05-07 15:54 50.93937 47.08763 1195 ft 122 kts 260°
2026-05-07 15:54 50.93750 47.07449 1172 ft 120 kts 266°
2026-05-07 15:54 50.93630 47.06102 1051 ft 126 kts 266°
2026-05-07 15:54 50.93500 47.04757 1108 ft 119 kts 263°
2026-05-07 15:55 50.93323 47.03487 1099 ft 118 kts 261°
2026-05-07 15:55 50.93130 47.02218 1051 ft 119 kts 261°
2026-05-07 15:55 50.92998 47.00976 1078 ft 109 kts 266°
2026-05-07 15:55 50.92869 46.99819 1039 ft 107 kts 265°
2026-05-07 15:56 50.92802 46.98661 979 ft 107 kts 269°
2026-05-07 15:56 50.92698 46.97474 888 ft 107 kts 264°
2026-05-07 15:56 50.92615 46.96322 853 ft 108 kts 270°
2026-05-07 15:56 50.92544 46.95184 820 ft 95 kts 270°
2026-05-07 15:57 50.92538 46.94183 760 ft 88 kts 276°
2026-05-07 15:57 50.92554 46.93230 718 ft 84 kts 276°
2026-05-07 15:57 50.92648 46.92316 685 ft 80 kts 294°
2026-05-07 15:57 50.92953 46.91671 666 ft 71 kts 344°
2026-05-07 15:58 50.93259 46.91813 606 ft 76 kts 37°
2026-05-07 15:58 50.93601 46.92497 519 ft 79 kts 44°
2026-05-07 15:58 50.94062 46.92953 460 ft 78 kts 26°
2026-05-07 15:58 50.94548 46.93342 395 ft 79 kts 27°
2026-05-07 15:59 50.95039 46.93759 309 ft 82 kts 27°
2026-05-07 15:59 50.95549 46.94172 211 ft 81 kts 26°
2026-05-07 15:59 50.95990 46.94532 169 ft 54 kts 27°
2026-05-07 15:59 50.96258 46.94742 175 ft 36 kts 28°
2026-05-07 16:00 50.96427 46.94907 174 ft 15 kts 64°
2026-05-07 16:00 50.96432 46.94990 173 ft 0 kts 105°
2026-05-07 16:00 50.96415 46.95018 172 ft 5 kts 166°
2026-05-07 16:01 50.96357 46.94985 170 ft 15 kts 202°
2026-05-07 16:01 50.96227 46.94903 167 ft 22 kts 186°
2026-05-07 16:01 50.96090 46.94826 165 ft 22 kts 212°
2026-05-07 16:01 50.95938 46.94670 165 ft 30 kts 209°
2026-05-07 16:02 50.95740 46.94487 160 ft 31 kts 213°
2026-05-07 16:02 50.95612 46.94385 158 ft 7 kts 173°
2026-05-07 16:02 50.95561 46.94448 155 ft 12 kts 92°
2026-05-07 16:02 50.95585 46.94513 152 ft 4 kts 72°
2026-05-07 16:03 50.95578 46.94531 152 ft 2 kts 183°
2026-05-07 16:03 50.95567 46.94531 152 ft 2 kts 187°
2026-05-07 16:03 50.95566 46.94531 152 ft 0 kts 185°